"Pseudo-MPEC" for P11JTsz

Created 2023 Sep 20 2:22:24 UT using Find_Orb

Click here for an explanation of pseudo-MPECs

 
 Astrometry: 
     P11JTsz* C2023 09 18]OD^9,C*eCe(yUh,dsDEM@VJMR-Av=s3Fqq_XnjCkUKDemP)fON9F51
     P11JTsz  C2023 09 18o_cv7K3hkGhAstrometrycrMug=2MCWl6auV6Jp`/3\8T4ZF5Hc-F51
     P11JTsz  C2023 09 18v^NmV;tSrfC3by$fIO7OO/=d/R2r:b0BV@]PM/=pCYI!EM?N?#G(F51
     P11JTsz  C2023 09 18A17MDcg,s0mGG@WjwnUvutJ9m'`vHr3PpwqVJ[Mr)tl`l]:C+o?iF51
     P11JTsz  C2023 09 18C?6JY2M+#!QN2!0_s93fS%#GHbAh_dauh@b;Lbr'9G9n1RB$?bWDF51
     P11JTsz KC2023 09 18e$F'tAo3_VbNvJCfp*%qCN(Pp,oX=nwun$o6M\O)D#YI!\5q@;h=M21
     P11JTsz KC2023 09 18ipm9Vcqs1Hn%L=;yyk\wHoF#+\tKQit263BS^;d,cj2_eY*GW-#0M21
     P11JTsz mC2023 09 19.25976600 13 57.558-24 16 39.94   ~9J6b 19.43GVNEOCPI52
     P11JTsz mC2023 09 19.26225600 13 56.420-24 16 25.32   ~9J6b 18.82GVNEOCPI52
     P11JTsz mC2023 09 19.26474200 13 55.276-24 16 10.49   ~9J6b 19.28GVNEOCPI52
     P11JTsz mC2023 09 19.26724200 13 54.113-24 15 55.55   ~9J6b 19.30GVNEOCPI52
     P11JTsz KC2023 09 19H9+sDGr4S_V,CrK)5;;Tu_'RlD0F#a?H/6@wCSO#%Ta;o1J],c9/E94
     P11JTsz KC2023 09 19b#1.s((\#3;]fj:FE!;nXLr;X5YKDvNV^/)@k?8nRS+rDFCGYk%+E94
     P11JTsz KC2023 09 19tS.ix^r.B[7cL0Uub/Z-S*(fuar9\jGD3E\+SX@Duredacted;mTE94
     P11JTsz KC2023 09 19QBp`click*mhere)]w1JLLv@bfg,y2B_?!%cvLqMng3qqZT/W?3*E23
     P11JTsz KC2023 09 19kcJT)7:\#]uB^!_4'VbvCOGn0UWgtDK?-OsjfhMC%H?=#$Q_Z9[WE23
     P11JTsz KC2023 09 19i\Ly7]@e(l*iA$ZbFa_Kc%hA)sd3;AVwG/h_OSgu]0q;D3a+rfIwE23
     P11JTsz  C2023 09 19Tj[NJy;etKbBZ*'c]H9tX06WCQoemL/NTY'ID!t`C.j$r'e9ulprM28
     P11JTsz  C2023 09 19C2gaR4haBuCl?E@ZBO$!!,'fb@;T6gw#T9UC'p_Ik]oe(6E$eI%fM28
     P11JTsz KB2023 09 19/-,qMGK4#uBforP?wF%FlWD,qK(755C,D242i/._9N\`-\RIx/G*K74
     P11JTsz KB2023 09 19eIUj+l%tif7gR%SA5bNjhwxtQ]!5HJkm07r*[8uj!VejrEraam`5K74
     P11JTsz KB2023 09 20m7MnurqBexplanation(c;3DS.xcVcS(/LDJg70V^!)R(Y%S!-pt958
     P11JTsz KB2023 09 20:$];K?TT(ZRS!jc1N?;[GN`T)Gqve$3Z3,yg:(!l5V6xheq]r1:M958
     P11JTsz KB2023 09 20:;Dn7cr$D,8P`YjB[\Wks/Y8'ply',LvGJj94==X#UbciR+Jhbo;958
     P11JTsz KB2023 09 20.05072500 09 06.20 -23 05 09.1    ~9K1q 19.7 GVNEOCPI93
     P11JTsz KB2023 09 20.05643000 09 04.22 -23 04 41.1    ~9K1q 19.7 GVNEOCPI93
     P11JTsz KB2023 09 20.06195400 09 02.28 -23 04 14.1    ~9K1q 19.3 GVNEOCPI93

Station data:
(958) Observatoire de Dax  (N43.693324 W1.030390)  France.  Observer P.
   Dupouy. 0.32-m Schmidt-Cassegrain.
(E23) Arcadia  (S33.621197 E151.071190)  Australia/NSW.  Observer A. Hidas.
   0.35-m f/1.9 reflector + CCD.
(E94) Gisborne (Possum Observatory)  (S38.629920 E177.883310)  New Zealand.
   Observer J. Drummond. 0.41-m f/4.5 Newtonian reflector + CCD.
(F51) Pan-STARRS 1, Haleakala  (N20.707234 W156.255910)  US/Hawaii.
   Observers J. Bulger, T. Lowe, A. Schultz, M. Willman. Measurers K.
   Chambers, S. Chastel, T. de Boer, L. Denneau, J. Fairlamb, H. Flewelling,
   M. Huber, C.-C. Lin, E. Magnier, Y. Ramanjooloo, R. Wainscoat, R. Weryk.
   1.8-m Ritchey-Chrétien + CCD.
(I52) Steward Observatory, Mt. Lemmon Station  (N32.442544 W110.788920)
   US/Arizona.  Observers T. A. Pruyne, B. M. Africano, E. J. Christensen, G.
   A. Farneth, D. C. Fuls, A. R. Gibbs, A. D. Grauer, H. Gröller, J. A.
   Johnson, R. A. Kowalski, S. M. Larson, G. J. Leonard, D. Rankin, R. L.
   Seaman, F. C. Shelly, K. W. Wierzchoś. 1.0-m prime focus + CCD.
(I93) St Pardon de Conques  (N44.558708 W0.203000)  France.  Observers F.
   Losse, W. D'Anna. Measurer F. Losse. 0.40-m f/3.7 reflector + CCD.
(K74) Muensterschwarzach Observatory, Schwarzach  (N49.805276 E10.236400)
   Germany.  Observer C. Gerhard. 0.30-m f/3.75 Newtonian reflector + CCD.
(M21) Schiaparelli Southern Observatory, Hakos  (S23.236549 E16.361440)
   Namibia.  Observers A. Aletti, F. Bellini, L. Buzzi, G. Galli. Measurer L.
   Buzzi. 0.36-m f/8.4 reflector + CCD.
(M28) Lesedi Telescope-SAAO Observatory, Sutherland  (S32.379790 E20.810640)
   South Africa.  Observer N. Erasmus. 1.0-m f/8 Reflector + CCD.

Orbital elements:  P11JTsz
   Perihelion 2023 Jul 25.07612 +/- 0.0353 TT =  1:49:36 (JD 2460150.57612)
Epoch 2023 Sep 20.0 TT = JDT 2460207.5   Earth MOID: 0.0060   Ve: 0.0149
M  27.24673165 +/- 0.09             Ma: 0.0646                   AutoNEOCP
n   0.47865203 +/- 0.00129          Peri.   94.83374 +/- 0.006
a   1.61853752 +/- 0.00291          Node   162.77113 +/- 0.008
e   0.6316166 +/- 0.000869          Incl.    6.53294 +/- 0.009
P   2.06/752.10d           H 24.06  G  0.15   U  8.3
q 0.59624232 +/- 0.000334    Q 2.64083273 +/- 0.00616     (J2000 ecliptic)
From 27 observations 2023 Sept. 18-20 (39.4 hr); mean residual 0".38
Residuals in arcseconds: 
230918 F51  .18+  .19-    230919 I52  .12+  .16-    230919 M28  .40-  .40+    
230918 F51  .02-  .06+    230919 I52  .06-  .20-    230919 K74  .14-  .52-    
230918 F51  .51-  .45+    230919 E94  .54+  .40+    230919 K74  .03+  .38+    
230918 F51  .20+  .24-    230919 E94  .18+  .34+    230920 958  .25-  .25-    
230918 F51  .12+  .15-    230919 E94  .44+  .71+    230920 958  .90-  .46+    
230918 M21  .10-  .13-    230919 E23  .02-  .43-    230920 958  .16+  .02+    
230918 M21  .08+  .01-    230919 E23  .17+  .38+    230920 I93  .14+  .36-    
230919 I52  .02+  .19+    230919 E23  .04-  .39-    230920 I93  .68+  .35-    
230919 I52  .13+  .10-    230919 M28  1.2-  .26+    230920 I93  .81+  .45-    

Ephemerides (geocentric):
Date (UTC) HH   RA             Dec           delta  r     elong  mag " sig PA
---- --------  ------------   ------------  ------ ------ -----  --- --------
2023 09 20 02  00 08 57.314   -23 00 47.01  .07711 1.0763 157.7 19.7 .089 143
2023 09 20 03  00 08 44.271   -22 57 28.22  .07758 1.0767 157.8 19.7 .092 142
2023 09 20 04  00 08 31.393   -22 54 11.64  .07805 1.0772 157.8 19.7 .096 141
2023 09 20 05  00 08 18.678   -22 50 57.25  .07852 1.0776 157.9 19.7 .099 140
2023 09 20 06  00 08 06.122   -22 47 45.01  .07899 1.0781 158.0 19.7 .102 140
2023 09 20 07  00 07 53.723   -22 44 34.87  .07945 1.0785 158.0 19.7 .106 139
2023 09 20 08  00 07 41.477   -22 41 26.80  .07992 1.0790 158.1 19.8 .109 139
2023 09 20 09  00 07 29.382   -22 38 20.78  .08039 1.0794 158.1 19.8 .113 138
2023 09 20 10  00 07 17.435   -22 35 16.76  .08086 1.0799 158.2 19.8 .117 138
2023 09 20 11  00 07 05.633   -22 32 14.71  .08133 1.0804 158.2 19.8 .121 137
2023 09 20 12  00 06 53.974   -22 29 14.60  .08180 1.0808 158.3 19.8 .125 137
2023 09 20 13  00 06 42.455   -22 26 16.40  .08227 1.0813 158.3 19.8 .129 136
2023 09 20 14  00 06 31.074   -22 23 20.08  .08274 1.0817 158.4 19.8 .133 136
2023 09 20 15  00 06 19.828   -22 20 25.60  .08321 1.0822 158.4 19.8 .137 136
2023 09 20 16  00 06 08.715   -22 17 32.94  .08368 1.0826 158.5 19.8 .141 136
2023 09 20 17  00 05 57.733   -22 14 42.06  .08415 1.0831 158.5 19.9 .145 135
2023 09 20 18  00 05 46.880   -22 11 52.95  .08462 1.0835 158.6 19.9 .149 135
2023 09 20 19  00 05 36.152   -22 09 05.56  .08509 1.0840 158.6 19.9 .154 135
2023 09 20 20  00 05 25.549   -22 06 19.88  .08556 1.0844 158.6 19.9 .158 135
2023 09 20 21  00 05 15.067   -22 03 35.88  .08603 1.0849 158.7 19.9 .162 135
2023 09 20 22  00 05 04.706   -22 00 53.53  .08650 1.0853 158.7 19.9 .167 135
2023 09 20 23  00 04 54.462   -21 58 12.80  .08697 1.0858 158.8 19.9 .171 134
2023 09 21 00  00 04 44.335   -21 55 33.67  .08744 1.0862 158.8 19.9 .176 134
2023 09 21 01  00 04 34.321   -21 52 56.12  .08791 1.0867 158.8 19.9 .180 134
2023 09 21 02  00 04 24.419   -21 50 20.11  .08838 1.0871 158.9 20.0 .185 134
2023 09 21 03  00 04 14.628   -21 47 45.64  .08885 1.0876 158.9 20.0 .190 134
2023 09 21 04  00 04 04.946   -21 45 12.66  .08933 1.0881 159.0 20.0 .194 134
2023 09 21 05  00 03 55.370   -21 42 41.17  .08980 1.0885 159.0 20.0 .199 134
2023 09 21 06  00 03 45.899   -21 40 11.13  .09027 1.0890 159.0 20.0 .204 134
2023 09 21 07  00 03 36.531   -21 37 42.53  .09074 1.0894 159.1 20.0 .208 134
2023 09 21 08  00 03 27.266   -21 35 15.35  .09121 1.0899 159.1 20.0 .213 134
2023 09 21 09  00 03 18.100   -21 32 49.56  .09169 1.0903 159.1 20.0 .218 134
2023 09 21 10  00 03 09.033   -21 30 25.14  .09216 1.0908 159.2 20.0 .223 134
2023 09 21 11  00 03 00.063   -21 28 02.08  .09263 1.0912 159.2 20.1 .227 134
2023 09 21 12  00 02 51.188   -21 25 40.34  .09310 1.0917 159.2 20.1 .232 134
2023 09 21 13  00 02 42.407   -21 23 19.92  .09358 1.0921 159.3 20.1 .237 134
2023 09 21 14  00 02 33.719   -21 21 00.80  .09405 1.0926 159.3 20.1 .242 134
2023 09 21 15  00 02 25.122   -21 18 42.95  .09452 1.0930 159.3 20.1 .247 134
2023 09 21 16  00 02 16.615   -21 16 26.35  .09500 1.0935 159.4 20.1 .252 134
2023 09 21 17  00 02 08.196   -21 14 11.00  .09547 1.0939 159.4 20.1 .257 134
2023 09 21 18  00 01 59.864   -21 11 56.86  .09595 1.0944 159.4 20.1 .261 134
2023 09 21 19  00 01 51.618   -21 09 43.93  .09642 1.0948 159.4 20.1 .266 134
2023 09 21 20  00 01 43.456   -21 07 32.19  .09689 1.0953 159.5 20.2 .271 134
2023 09 21 21  00 01 35.378   -21 05 21.61  .09737 1.0957 159.5 20.2 .276 134
2023 09 21 22  00 01 27.382   -21 03 12.19  .09784 1.0962 159.5 20.2 .281 134
2023 09 21 23  00 01 19.466   -21 01 03.90  .09832 1.0966 159.5 20.2 .286 134
2023 09 22 00  00 01 11.630   -20 58 56.74  .09879 1.0971 159.6 20.2 .291 135
2023 09 22 01  00 01 03.872   -20 56 50.68  .09927 1.0975 159.6 20.2 .296 135